STARLINK-2247 (48446 NORAD) Tracking and Keplerian Element Data

This shows tracking and keplerian element data for the satellite.

Feedback or suggestion? Click here.




ElementValue
Catalog48446
NameSTARLINK-2247
Epoch Orbit366
Epoch Day214.91667824
Epoch Year2021
RAAN162.8223
Inclination53.0476
Eccentricity0.0001429
Argument of Perigee67.5502
Mean Anonmoly226.5941
Mean Motion15.21111525
Decay Rate-0.00834886
L11 48446U 21040U 21214.91667824 -.00834886 00000-0 -40197-1 0 9997
L22 48446 53.0476 162.8223 0001429 67.5502 226.5941 15.21111525 3666

Live tracking and technical data element details for STARLINK-2247 (NORAD 48446). STARLINK-2247 can be tracked NOW for your location showing map with azimuth and elevation plus other details from your city location.

Track the satellite on the map from your city or location and see movement details for azimuth, elevation, latitude, longitude, range, height, and movement on the map or in text.







IsCatalogInMostPopularTable: catalog: 48446, numindb: 25
Update: records affected: 1



GetName: 48446 STARLINK-2247

Hit Count: updated at: Tue, 03 Aug 2021 20:14:11 GMT